Waterloo, IA

10:23 AM CDT on June 28, 2017 (GMT -0500)
Waterloo Municipal

Weather History for KALO - July, 2013

Change the Weather History Date:

Saturday, July 20, 2013

  Actual Average Record
Temperature  
Mean Temperature 73 °F 74 °F  
Max Temperature 89 °F 84 °F 104 °F (1930)
Min Temperature 57 °F 63 °F 47 °F (1970)
Degree Days  
Heating Degree Days 0 0  
Month to date heating degree days 0 0  
Since 1 June heating degree days 38 26  
Since 1 July heating degree days 0 0  
Cooling Degree Days 8 9  
Month to date cooling degree days 215 180  
Year to date cooling degree days 436 413  
Since 1 June cooling degree days 383 357  
Growing Degree Days 23 (Base 50)    
Moisture  
Dew Point 61 °F    
Average Humidity 66    
Maximum Humidity 93    
Minimum Humidity 39    
Precipitation  
Precipitation 0.00 in 0.15 in 1.93 in (1999)
Month to date precipitation 0.30 3.30  
Year to date precipitation 28.56 20.40  
Snow  
Snow 0.00 in 0.00 in - ()
Month to date snowfall 0.0 0.0  
Since 1 June snowfall 0.0 0.0  
Since 1 July snowfall 0.0 0.0  
Snow Depth 0.00 in    
Sea Level Pressure  
Sea Level Pressure 29.90 in    
Wind  
Wind Speed 4 mph (West)    
Max Wind Speed 13 mph    
Max Gust Speed 18 mph    
Visibility 10 miles    
Events      
T = Trace of Precipitation, MM = Missing Value Source: NWS Daily Summary

Daily Weather History Graph

Daily Weather History Graph

Search for Another Location

Airport or City:

Trip Planner

Search our weather history database for the weather conditions in past years. The results will help you decide how hot, cold, wet, or windy it might be!

Date:

Astronomy

Jul. 20, 2013 Rise Set
Actual Time 5:50 AM CDT 8:41 PM CDT
Civil Twilight 5:16 AM CDT 9:14 PM CDT
Nautical Twilight 4:34 AM CDT 9:56 PM CDT
Astronomical Twilight 3:46 AM CDT 10:44 PM CDT
Moon 6:44 PM CDT (7/20) 3:30 AM CDT (7/20)
Length of Visible Light 15h 57m
Length of Day
14h 51m
Waxing Gibbous, 94% of the Moon is Illuminated
Jul 20
Waxing Gibbous
Jul 22
Full
Jul 29
Last Quarter
Aug 6
New
Aug 14
First Quarter

Hourly Weather History & Observations

Time (CDT) Temp. Heat Index Dew Point Humidity Pressure Visibility Wind Dir Wind Speed Gust Speed Precip Events Conditions
12:54 AM 64.0 °F - 60.1 °F 87% 29.90 in 10.0 mi NW 6.9 mph - N/A   Clear
1:54 AM 66.0 °F - 61.0 °F 84% 29.90 in 10.0 mi WNW 4.6 mph - N/A   Clear
2:54 AM 63.0 °F - 61.0 °F 93% 29.89 in 10.0 mi NW 3.5 mph - N/A   Clear
3:54 AM 62.1 °F - 60.1 °F 93% 29.88 in 10.0 mi Calm Calm - N/A   Clear
4:54 AM 62.1 °F - 60.1 °F 93% 29.89 in 10.0 mi Calm Calm - N/A   Clear
5:54 AM 59.0 °F - 57.9 °F 96% 29.89 in 5.0 mi Calm Calm - N/A   Clear
6:54 AM 62.1 °F - 59.0 °F 90% 29.90 in 10.0 mi Calm Calm - N/A   Clear
7:54 AM 68.0 °F - 63.0 °F 84% 29.92 in 10.0 mi NW 5.8 mph - N/A   Clear
8:54 AM 75.0 °F - 63.0 °F 66% 29.93 in 10.0 mi Calm Calm - N/A   Clear
9:54 AM 80.1 °F 81.1 °F 61.0 °F 52% 29.93 in 10.0 mi NNW 8.1 mph - N/A   Clear
10:54 AM 82.9 °F 83.7 °F 62.1 °F 49% 29.94 in 10.0 mi NW 6.9 mph - N/A   Clear
11:54 AM 82.9 °F 83.3 °F 61.0 °F 47% 29.92 in 10.0 mi Calm Calm - N/A   Clear
12:54 PM 86.0 °F 85.7 °F 60.1 °F 41% 29.93 in 10.0 mi West 8.1 mph - N/A   Scattered Clouds
1:54 PM 86.0 °F 85.7 °F 60.1 °F 41% 29.91 in 10.0 mi Calm Calm - N/A   Scattered Clouds
2:54 PM 87.1 °F 86.5 °F 59.0 °F 39% 29.90 in 10.0 mi Variable 4.6 mph - N/A   Scattered Clouds
3:54 PM 84.9 °F 84.4 °F 59.0 °F 41% 29.89 in 10.0 mi SSW 6.9 mph - N/A   Scattered Clouds
4:54 PM 88.0 °F 87.6 °F 60.1 °F 39% 29.88 in 10.0 mi West 9.2 mph - N/A   Clear
5:54 PM 87.1 °F 86.5 °F 59.0 °F 39% 29.87 in 10.0 mi West 9.2 mph - N/A   Scattered Clouds
6:54 PM 84.9 °F 84.8 °F 60.1 °F 43% 29.86 in 10.0 mi West 5.8 mph - N/A   Clear
7:54 PM 84.0 °F 84.4 °F 61.0 °F 46% 29.87 in 10.0 mi Calm Calm - N/A   Partly Cloudy
8:54 PM 75.9 °F - 66.0 °F 71% 29.88 in 10.0 mi SE 4.6 mph - N/A   Clear
9:54 PM 75.0 °F - 64.9 °F 71% 29.89 in 10.0 mi SE 6.9 mph - N/A   Partly Cloudy
10:54 PM 73.0 °F - 66.0 °F 79% 29.91 in 10.0 mi South 5.8 mph - N/A   Partly Cloudy
11:54 PM 72.0 °F - 64.9 °F 78% 29.91 in 10.0 mi SSE 3.5 mph - N/A   Clear